Weather observations for the past three days for
La Porte Municipal Airport
Imperial (Metric)
Date Time (cdt) Wind (mph) Vis. (mi.) Weather Sky Cond. Temperature (ºF) Relative Humidity Wind Chill (°F) Heat Index (°F) Pressure Precipitation (in)
Air Dwpt 6 hour altimeter (in) sea level (mb) 1 hr 3 hr 6 hr
Max. Min.
19 13:35 Vrbl 5 10.00 A Few Clouds FEW050 75.2 55.4 50% 78 30.19 0.0
19 13:15 SE 3 10.00 Fair CLR 75.2 55.4 50% 78 30.2 0.0
19 12:55 Vrbl 3 10.00 Fair CLR 75.2 55.4 74.8 57.6 50% 78 30.2 0.0
19 12:35 Vrbl 6 10.00 Fair CLR 75.2 57.2 54% 78 30.21 0.0
19 12:15 Vrbl 3 10.00 A Few Clouds FEW049 73.4 57.2 57% 30.21 0.0
19 11:55 Vrbl 3 10.00 Partly Cloudy SCT047 71.6 55.4 57% 30.22 0.0
19 11:35 Calm 10.00 Mostly Cloudy BKN045 71.6 53.6 53% 30.22 0.0
19 11:15 Calm 10.00 A Few Clouds FEW043 71.6 53.6 53% 30.22 0.0
19 10:55 E 5 10.00 A Few Clouds FEW043 71.6 55.4 57% 30.21 0.0
19 10:35 Vrbl 2 10.00 Fair CLR 71.6 53.6 53% 30.21 0.0
19 10:15 N 5 10.00 Fair CLR 69.8 55.4 60% 30.22 0.0
19 09:55 SE 3 10.00 Fair CLR 69.8 55.4 60% 30.22 0.0
19 09:35 Calm 10.00 Fair CLR 69.8 53.6 57% 30.22 0.0
19 09:15 Vrbl 2 10.00 Fair CLR 68 55.4 64% 30.22 0.0
19 08:55 Vrbl 2 10.00 Fair CLR 68 53.6 60% 30.22 0.0
19 08:35 Calm 10.00 Fair CLR 68 55.4 64% 30.23 0.0
19 08:15 Calm 10.00 Fair CLR 66.2 55.4 68% 30.24 0.0
19 07:55 Calm 10.00 Fair CLR 64.4 55.4 73% 30.24 0.0
19 07:35 Calm 10.00 Fair CLR 62.6 59 88% 30.23 0.0
19 07:15 Calm 10.00 Fair CLR 60.8 59 94% 30.23 0.0
19 06:55 Calm 10.00 Fair CLR 57.2 57.2 57.6 50.4 100% 30.22 0.0
19 06:35 SW 1 10.00 Fair CLR 55.4 55.4 100% 30.22 0.0
19 06:15 NW 1 10.00 Fair CLR 53.6 53.6 100% 30.21 0.0
19 05:55 NW 1 10.00 Fair CLR 51.8 51.8 100% 30.21 0.0
19 05:35 Calm 10.00 Fair CLR 51.8 51.8 100% 30.21 0.0
19 05:15 NW 2 10.00 Fair CLR 51.8 51.8 100% 30.21 0.0
19 04:55 NW 1 10.00 Partly Cloudy SCT065 SCT095 51.8 51.8 100% 30.2 0.0
19 04:35 Calm 10.00 Partly Cloudy SCT065 51.8 51.8 100% 30.19 0.0
19 04:15 W 1 10.00 A Few Clouds FEW065 51.8 51.8 100% 30.19 0.0
19 03:55 W 1 3.00 Fog/Mist FEW070 51.8 51.8 100% 30.18 0.0
19 03:35 W 1 10.00 A Few Clouds FEW070 FEW100 51.8 51.8 100% 30.18 0.0
19 03:15 NW 2 10.00 A Few Clouds FEW070 51.8 51.8 100% 30.19 0.0
19 02:55 W 2 10.00 A Few Clouds FEW070 51.8 51.8 100% 30.19 0.0
19 02:35 NW 3 10.00 A Few Clouds FEW070 51.8 51.8 100% 30.18 0.0
19 02:15 W 1 10.00 A Few Clouds FEW070 53.6 53.6 100% 30.19 0.0
19 01:55 W 1 10.00 A Few Clouds FEW070 53.6 53.6 100% 30.19 0.0
19 01:35 NW 1 10.00 A Few Clouds FEW070 53.6 53.6 100% 30.19 0.0
19 01:15 NW 2 10.00 A Few Clouds FEW070 53.6 53.6 100% 30.19 0.0
19 00:55 Vrbl 1 10.00 A Few Clouds FEW070 53.6 53.6 67.6 53.4 100% 30.2 0.0
19 00:35 SW 3 10.00 Mostly Cloudy BKN070 53.6 53.6 100% 30.2 0.0
19 00:15 SW 1 10.00 Partly Cloudy SCT070 SCT080 53.6 53.6 100% 30.2 0.0
18 23:55 Calm 10.00 Partly Cloudy SCT070 53.6 53.6 100% 30.2 0.0
18 23:35 W 1 10.00 Partly Cloudy SCT070 55.4 53.6 94% 30.19 0.0
18 23:15 N 3 10.00 Partly Cloudy SCT070 55.4 53.6 94% 30.19 0.0
18 22:55 Calm 10.00 A Few Clouds FEW065 55.4 53.6 94% 30.19 0.0
18 21:55 NW 3 10.00 Mostly Cloudy BKN065 57.2 55.4 94% 30.19 0.0
18 21:35 NW 1 10.00 Partly Cloudy SCT065 57.2 55.4 94% 30.18 0.0
18 21:15 NW 5 10.00 A Few Clouds FEW065 59 55.4 88% 30.18 0.0
18 20:55 NW 3 10.00 Fair CLR 60.8 55.4 83% 30.18 0.0
18 20:35 NW 5 10.00 Fair CLR 60.8 55.4 83% 30.17 0.0
18 20:15 NW 5 10.00 Fair CLR 60.8 55.4 83% 30.17 0.0
18 19:55 N 6 10.00 Fair CLR 64.4 55.4 73% 30.18 0.0
18 19:35 N 9 10.00 Fair CLR 66.2 55.4 68% 30.18 0.0
18 19:15 N 9 10.00 Fair CLR 66.2 53.6 64% 30.18 0.0
18 18:55 N 10 10.00 Fair CLR 68 53.6 71.6 67.5 60% 30.18 0.0
18 18:35 N 13 10.00 Fair CLR 68 53.6 60% 30.18 0.0
18 18:15 N 12 10.00 Fair CLR 68 53.6 60% 30.18 0.0
18 17:55 N 10 10.00 Fair CLR 69.8 55.4 60% 30.18 0.0
18 17:35 N 12 10.00 Fair CLR 69.8 53.6 57% 30.18 0.0
18 17:15 N 15 G 18 10.00 Fair CLR 69.8 55.4 60% 30.18 0.0
18 16:55 N 14 10.00 Fair CLR 69.8 53.6 57% 30.18 0.0
18 16:35 N 14 10.00 Fair CLR 69.8 53.6 57% 30.18 0.0
18 16:15 NW 13 G 20 10.00 Fair CLR 69.8 55.4 60% 30.19 0.0
18 15:55 NW 10 G 17 10.00 Fair CLR 69.8 53.6 57% 30.19 0.0
18 15:35 N 14 G 18 10.00 A Few Clouds FEW038 69.8 53.6 57% 30.2 0.0
18 15:15 NW 15 G 18 10.00 Partly Cloudy SCT038 71.6 55.4 57% 30.19 0.0
18 14:55 N 13 10.00 Partly Cloudy SCT038 SCT044 69.8 55.4 60% 30.2 0.0
18 14:35 N 14 10.00 Mostly Cloudy BKN036 BKN044 69.8 55.4 60% 30.2 0.0
18 14:15 N 16 G 20 10.00 A Few Clouds FEW037 69.8 57.2 64% 30.2 0.0
18 13:55 N 14 G 20 10.00 A Few Clouds FEW035 FEW041 71.6 57.2 61% 30.2 0.0
18 13:35 N 10 G 20 10.00 A Few Clouds FEW033 FEW039 69.8 57.2 64% 30.2 0.0
18 13:15 N 14 10.00 A Few Clouds FEW032 69.8 57.2 64% 30.2 0.0
18 12:55 N 15 G 21 10.00 A Few Clouds FEW032 FEW045 69.8 57.2 70.9 60.3 64% 30.2 0.0
18 12:35 N 14 10.00 Partly Cloudy FEW035 SCT044 69.8 57.2 64% 30.2 0.0
18 12:15 N 15 10.00 Mostly Cloudy SCT035 BKN042 68 55.4 64% 30.2 0.0
18 11:55 NW 14 G 18 10.00 Partly Cloudy FEW035 FEW040 SCT046 69.8 55.4 60% 30.2 0.0
18 11:35 N 14 G 20 10.00 Partly Cloudy SCT035 SCT044 68 55.4 64% 30.2 0.0
18 11:15 N 13 G 20 10.00 Partly Cloudy SCT039 SCT048 68 55.4 64% 30.2 0.0
18 10:55 N 13 G 20 10.00 A Few Clouds FEW039 69.8 57.2 64% 30.19 0.0
18 10:35 N 13 10.00 Partly Cloudy SCT028 SCT038 SCT044 68 57.2 69% 30.19 0.0
18 10:15 N 10 G 16 10.00 Overcast BKN028 BKN036 OVC044 66.2 57.2 73% 30.19 0.0
18 09:55 NE 8 10.00 Mostly Cloudy BKN030 BKN036 BKN046 66.2 57.2 73% 30.19 0.0
18 09:35 Vrbl 7 10.00 Partly Cloudy SCT028 SCT036 66.2 57.2 73% 30.19 0.0
18 09:15 NE 9 10.00 A Few Clouds FEW026 66.2 57.2 73% 30.19 0.0
18 08:55 NE 12 10.00 Fair CLR 66.2 57.2 73% 30.19 0.0
18 08:35 NE 8 10.00 Fair CLR 64.4 57.2 78% 30.18 0.0
18 08:15 N 7 10.00 Fair CLR 64.4 57.2 78% 30.18 0.0
18 07:55 NE 7 10.00 Partly Cloudy FEW030 SCT036 62.6 55.4 77% 30.17 0.0
18 07:35 NE 6 10.00 Mostly Cloudy BKN033 60.8 55.4 83% 30.17 0.0
18 07:15 E 6 10.00 Mostly Cloudy BKN031 60.8 55.4 83% 30.17 0.0
18 06:55 NE 6 10.00 Mostly Cloudy BKN031 62.6 55.4 62.2 58.1 77% 30.15 0.0
18 06:35 NE 5 10.00 Partly Cloudy SCT031 60.8 57.2 88% 30.15 0.0
18 06:15 N 5 10.00 Partly Cloudy SCT029 59 57.2 94% 30.15 0.0
18 05:55 N 6 10.00 A Few Clouds FEW027 59 55.4 88% 30.15 0.0
18 05:35 N 7 10.00 Fair CLR 59 55.4 88% 30.14 0.0
18 05:15 N 5 10.00 Fair CLR 59 55.4 88% 30.13 0.0
18 04:55 N 8 10.00 Fair CLR 60.8 55.4 83% 30.13 0.0
18 04:35 N 8 10.00 Fair CLR 60.8 57.2 88% 30.12 0.0
18 04:15 N 7 10.00 A Few Clouds FEW034 60.8 57.2 88% 30.12 0.0
18 03:55 N 9 10.00 Partly Cloudy FEW031 SCT039 SCT047 62.6 57.2 83% 30.11 0.0
18 03:35 N 10 10.00 A Few Clouds FEW050 60.8 57.2 88% 30.1 0.0
18 03:15 N 10 10.00 Fair CLR 59 55.4 88% 30.1 0.0
18 02:55 N 8 10.00 Fair CLR 59 55.4 88% 30.1 0.0
18 02:35 N 7 10.00 Fair CLR 59 55.4 88% 30.1 0.0
18 02:15 N 7 10.00 Fair CLR 59 55.4 88% 30.11 0.0
18 01:55 N 7 10.00 Fair CLR 59 55.4 88% 30.11 0.0
18 01:35 NW 8 10.00 Fair CLR 60.8 57.2 88% 30.11 0.0
18 01:15 N 7 10.00 Fair CLR 60.8 57.2 88% 30.1 0.0
18 00:55 N 8 10.00 Fair CLR 60.8 57.2 71.1 61.3 88% 30.11 0.0
18 00:35 N 8 10.00 Fair CLR 62.6 57.2 83% 30.11 0.0
18 00:15 N 8 10.00 Fair CLR 62.6 57.2 83% 30.1 0.0
17 23:55 N 6 10.00 Fair CLR 62.6 57.2 83% 30.1 0.0
17 23:35 N 3 10.00 Fair CLR 62.6 57.2 83% 30.09 0.0
17 23:15 N 6 10.00 Fair CLR 62.6 57.2 83% 30.09 0.0
17 22:55 N 8 10.00 Fair CLR 62.6 57.2 83% 30.09 0.0
17 22:35 N 6 10.00 Fair CLR 62.6 59 88% 30.08 0.0
17 22:15 N 5 10.00 Fair CLR 62.6 59 88% 30.08 0.0
17 21:55 N 6 10.00 Fair CLR 62.6 59 88% 30.07 0.0
17 21:35 N 6 10.00 Fair CLR 64.4 59 83% 30.07 0.0
17 21:15 N 8 10.00 Fair CLR 66.2 59 78% 30.06 0.0
17 20:55 N 9 10.00 Fair CLR 66.2 59 78% 30.05 0.0
17 20:35 N 13 G 21 10.00 Fair CLR 66.2 57.2 73% 30.05 0.0
17 20:15 N 13 G 16 10.00 Fair CLR 68 59 73% 30.04 0.0
17 19:55 N 9 G 16 10.00 Fair CLR 68 59 73% 30.03 0.0
17 19:35 N 10 10.00 Fair CLR 69.8 59 69% 30.02 0.0
17 19:15 N 12 G 18 10.00 Fair CLR 69.8 59 69% 30.02 0.0
17 18:55 N 12 G 21 10.00 Fair CLR 71.6 59 78.3 71.1 65% 30.01 0.0
17 18:35 N 16 G 24 10.00 Fair CLR 71.6 59 65% 30.01 0.0
17 18:15 N 13 G 20 10.00 Fair CLR 71.6 59 65% 30.01 0.0
17 17:55 N 16 G 23 10.00 Fair CLR 71.6 59 65% 30 0.0
17 17:35 N 14 G 25 10.00 Fair CLR 73.4 60.8 65% 30 0.0
17 17:15 N 16 G 22 10.00 Fair CLR 73.4 60.8 65% 29.99 0.0
17 16:55 N 14 G 22 10.00 Fair CLR 73.4 60.8 65% 29.99 0.0
17 16:35 N 14 G 20 10.00 Fair CLR 75.2 60.8 61% 77 29.99 0.0
17 16:15 N 14 10.00 Fair CLR 75.2 60.8 61% 77 29.98 0.0
17 15:55 N 13 10.00 Fair CLR 75.2 62.6 65% 77 29.98 0.0
17 15:35 N 15 G 26 10.00 Fair CLR 77 60.8 57% 79 29.98 0.0
17 15:15 N 15 G 23 10.00 Fair CLR 77 60.8 57% 79 29.99 0.0
17 14:55 N 14 10.00 Fair CLR 77 64.4 65% 79 29.99 0.0
17 14:35 NW 14 G 21 10.00 Fair CLR 77 64.4 65% 79 29.99 0.0
17 14:15 N 14 G 21 10.00 Fair CLR 77 62.6 61% 79 29.99 0.0
17 13:55 NW 13 10.00 Fair CLR 77 62.6 61% 79 29.99 0.0
17 13:35 NW 13 G 23 10.00 Fair CLR 77 62.6 61% 79 29.98 0.0
17 13:15 N 16 G 23 10.00 Fair CLR 77 64.4 65% 79 29.98 0.0
17 12:55 N 13 10.00 Fair CLR 78.8 64.4 78.8 71.2 61% 81 29.97 0.0
17 12:35 NW 15 10.00 Fair CLR 78.8 64.4 61% 81 29.97 0.0
17 12:15 NW 14 G 21 10.00 Fair CLR 78.8 64.4 61% 81 29.97 0.0
17 11:55 N 12 10.00 A Few Clouds FEW035 78.8 64.4 61% 81 29.96 0.0
17 11:35 NW 12 10.00 Fair CLR 78.8 64.4 61% 81 29.96 0.0
17 11:15 NW 12 10.00 Fair CLR 78.8 64.4 61% 81 29.96 0.0
17 10:55 NW 10 10.00 Fair CLR 77 66.2 69% 79 29.96 0.0
17 10:35 NW 13 10.00 Fair CLR 77 66.2 69% 79 29.95 0.0
17 10:15 N 12 10.00 Fair CLR 75.2 64.4 69% 77 29.95 0.0
17 09:55 NW 12 10.00 Fair CLR 75.2 66.2 74% 77 29.94 0.0
17 09:35 NW 13 10.00 Fair CLR 77 68 74% 79 29.94 0.0
17 09:15 N 8 10.00 Fair CLR 75.2 68 78% 76 29.93 0.0
17 08:55 N 10 10.00 Fair CLR 75.2 69.8 83% 75 29.93 0.0
17 08:35 N 12 10.00 A Few Clouds FEW065 75.2 69.8 83% 75 29.93 0.0
17 08:15 N 9 10.00 Partly Cloudy SCT065 75.2 69.8 83% 75 29.92 0.0
17 07:55 N 8 10.00 A Few Clouds FEW065 73.4 68 83% 29.92 0.0
17 07:35 N 8 10.00 Fair CLR 73.4 68 83% 29.92 0.0
17 07:15 N 8 10.00 A Few Clouds FEW075 FEW110 71.6 68 88% 29.92 0.0
17 06:55 NW 6 10.00 Overcast BKN080 OVC095 71.6 69.8 71.2 69.3 94% 29.91 0.0
17 06:35 NW 2 8.00 Overcast BKN100 OVC120 71.6 69.8 94% 29.91 0.0
17 06:15 NW 1 5.00 Fog/Mist BKN048 BKN060 OVC120 69.8 69.8 100% 29.91 0.0
17 05:55 SW 1 5.00 Fog/Mist BKN048 OVC065 69.8 69.8 100% 29.91 0.0
17 05:35 W 2 8.00 Mostly Cloudy SCT046 BKN050 BKN060 71.6 69.8 94% 29.9 0.0
17 05:15 NW 5 5.00 Fog/Mist BKN044 BKN050 69.8 69.8 100% 29.9 0.0
17 04:55 NW 5 3.00 Fog/Mist SCT002 OVC044 69.8 69.8 100% 29.89 0.0
17 04:35 NW 3 3.00 Fog/Mist BKN002 OVC065 69.8 69.8 100% 29.89 0.0
17 04:15 W 2 3.00 Fog/Mist SCT002 BKN041 OVC065 71.6 71.6 100% 29.88 0.0
17 03:55 NW 3 3.00 Fog/Mist SCT002 BKN041 BKN055 69.8 69.8 100% 29.87 0.0
17 03:35 NW 3 4.00 Fog/Mist BKN055 BKN075 OVC110 71.6 71.6 100% 29.86 0.0
17 03:15 NW 6 4.00 Light Rain Fog/Mist SCT050 BKN060 OVC095 71.6 71.6 100% 29.86 0.0
17 02:55 W 3 3.00 Fog/Mist BKN060 BKN070 OVC095 71.6 71.6 100% 29.86 0.0
17 02:35 NW 2 3.00 Fog/Mist FEW055 BKN070 BKN120 69.8 69.8 100% 29.86 0.0
17 02:15 W 1 6.00 Fog/Mist FEW070 SCT120 69.8 69.8 100% 29.86 0.0
17 01:55 Calm 3.00 Fog/Mist FEW070 FEW120 69.8 69.8 100% 29.87 0.0
17 01:35 Calm 4.00 Fog/Mist CLR 69.8 69.8 100% 29.87 0.0
17 01:15 SW 2 4.00 Fog/Mist CLR 69.8 69.8 100% 29.87 0.0
17 00:55 W 2 7.00 Fog/Mist FEW060 SCT070 71.6 69.8 80.8 70.9 94% 29.88 0.0
17 00:35 NW 3 7.00 Overcast BKN060 OVC070 71.6 71.6 100% 29.88 0.0
17 00:15 NW 6 8.00 Overcast OVC050 71.6 71.6 100% 29.89 0.0
16 23:55 NW 2 9.00 Overcast OVC050 71.6 71.6 100% 29.9 0.0
16 23:35 Calm 10.00 Overcast OVC050 71.6 71.6 100% 29.89 0.0
16 23:15 S 2 9.00 Partly Cloudy SCT050 71.6 71.6 100% 29.89 0.0
16 22:55 SE 3 10.00 Fair CLR 71.6 69.8 94% 29.88 0.0
16 22:35 E 3 10.00 Fair CLR 71.6 71.6 100% 29.87 0.0
16 22:15 E 2 10.00 Fair CLR 73.4 71.6 94% 29.87 0.0
16 21:55 N 6 10.00 Fair CLR 73.4 69.8 89% 29.86 0.0
16 21:35 N 6 10.00 Fair CLR 73.4 69.8 89% 29.85 0.0
16 21:15 N 2 10.00 Fair CLR 73.4 71.6 94% 29.85 0.0
16 20:55 N 3 10.00 Fair CLR 73.4 71.6 94% 29.84 0.0
16 20:35 N 7 10.00 Fair CLR 73.4 71.6 94% 29.83 0.0
16 20:15 N 6 10.00 Fair CLR 75.2 71.6 89% 75 29.82 0.0
16 19:55 N 5 10.00 Fair CLR 75.2 73.4 94% 74 29.84 0.0
16 19:35 NW 5 10.00 Fair CLR 77 73.4 89% 78 29.83 0.0
16 19:15 W 5 10.00 Fair CLR 78.8 73.4 84% 82 29.82 0.0
16 18:55 NW 3 10.00 Fair CLR 80.6 73.4 83.3 77.4 79% 85 29.82 0.0
16 18:35 W 3 10.00 Fair CLR 80.6 75.2 84% 86 29.81 0.0
16 18:15 SW 3 10.00 Partly Cloudy SCT039 SCT047 80.6 75.2 84% 86 29.82 0.0
16 17:55 W 5 10.00 Mostly Cloudy FEW019 SCT039 BKN070 80.6 75.2 84% 86 29.82 0.0
16 17:35 W 5 10.00 Partly Cloudy FEW024 SCT050 SCT070 80.6 75.2 84% 86 29.81 0.0
16 17:15 SW 8 10.00 Mostly Cloudy FEW022 SCT027 BKN049 78.8 75.2 89% 82 29.82 0.0
16 16:55 NW 7 1.00 Heavy Rain Haze SCT004 OVC021 77 71.6 83% 78 29.81 0.0 0.08
16 16:35 NW 7 10.00 Mostly Cloudy SCT021 SCT026 BKN038 82.4 75.2 79% 89 29.82 0.0
16 16:15 W 8 10.00 Partly Cloudy SCT026 SCT036 SCT060 82.4 75.2 79% 89 29.82 0.0
16 15:55 SW 10 G 21 10.00 Mostly Cloudy SCT021 SCT031 BKN043 82.4 75.2 79% 89 29.83 0.0
16 15:35 SW 10 10.00 Mostly Cloudy SCT021 BKN027 BKN034 80.6 75.2 84% 86 29.83 0.0
16 15:15 SW 10 10.00 Mostly Cloudy SCT021 SCT034 BKN041 82.4 75.2 79% 89 29.84 0.0
16 14:55 SW 9 G 18 10.00 Mostly Cloudy SCT033 BKN041 BKN048 80.6 75.2 84% 86 29.85 0.0
16 14:35 SW 9 G 20 10.00 Mostly Cloudy FEW021 BKN039 80.6 73.4 79% 85 29.84 0.0
16 14:15 SW 13 10.00 Mostly Cloudy SCT019 BKN035 80.6 73.4 79% 85 29.83 0.0
16 13:55 SW 10 G 18 10.00 Overcast SCT019 SCT025 OVC035 80.6 73.4 79% 85 29.83 0.0
Date Time (cdt) Wind (mph) Vis. (mi.) Weather Sky Cond. Air Dwpt Max. Min. Relative Humidity Wind Chill (°F) Heat Index (°F) altimeter (in) sea level (mb) 1 hr 3 hr 6 hr
6 hour
Temperature (ºF) Pressure Precipitation (in)